Weather History for Port Isabel, TX

Change the Weather History Date:

Sunday, May 25, 2014

  Actual Average Record
Temperature  
Mean Temperature 82 °F -  
Max Temperature 88 °F - - ()
Min Temperature 78 °F - - ()
Cooling Degree Days 18    
Growing Degree Days 32 (Base 50)    
Moisture  
Dew Point 73 °F    
Average Humidity 78    
Maximum Humidity 88    
Minimum Humidity 57    
Precipitation  
Precipitation 0.00 in - - ()
Sea Level Pressure  
Sea Level Pressure 29.93 in    
Wind  
Wind Speed 18 mph (SE)    
Max Wind Speed 25 mph    
Max Gust Speed 31 mph    
Visibility 7 miles    
Events      
T = Trace of Precipitation, MM = Missing Value Source: NWS Daily Summary

Daily Weather History Graph

Daily Weather History Graph

Search for Another Location

Airport:

Trip Planner

Search our weather history database for the weather conditions in past years. The results will help you decide how hot, cold, wet, or windy it might be!

Date:

Astronomy

May. 25, 2014 Rise Set
Actual Time 6:38 AM CDT 8:14 PM CDT
Civil Twilight 6:13 AM CDT 8:39 PM CDT
Nautical Twilight 5:42 AM CDT 9:10 PM CDT
Astronomical Twilight 5:10 AM CDT 9:42 PM CDT
Moon 4:25 AM CDT 5:31 PM CDT
Length of Visible Light 14h 26m
Length of Day
13h 35m
Waning Crescent, 10% of the Moon is Illuminated
May 25
Waning Crescent
May 28
New
Jun 5
First Quarter
Jun 12
Full
Jun 19
Last Quarter

Hourly Weather History & Observations

Time (CDT) Temp. Heat Index Dew Point Humidity Pressure Visibility Wind Dir Wind Speed Gust Speed Precip Events Conditions
1:53 AM 78.1 °F - 73.9 °F 87% 29.93 in 7.0 mi SE 16.1 mph - N/A   Overcast
2:25 AM 78.8 °F - 73.4 °F 83% 29.93 in 7.0 mi SE 16.1 mph - N/A   Overcast
2:53 AM 78.1 °F - 73.9 °F 87% 29.92 in 6.0 mi SE 16.1 mph - N/A   Overcast
3:53 AM 78.1 °F - 73.9 °F 87% 29.90 in 6.0 mi SE 16.1 mph - N/A   Overcast
4:02 AM 78.8 °F - 73.4 °F 83% 29.90 in 6.0 mi SE 16.1 mph - N/A   Overcast
4:53 AM 78.1 °F - 73.9 °F 87% 29.91 in 6.0 mi SE 17.3 mph - N/A   Overcast
5:53 AM 78.1 °F - 73.9 °F 87% 29.92 in 6.0 mi SE 17.3 mph - N/A   Overcast
6:31 AM 78.8 °F - 73.4 °F 83% 29.92 in 7.0 mi SE 16.1 mph - N/A   Overcast
6:53 AM 78.1 °F - 73.9 °F 87% 29.92 in 6.0 mi SE 16.1 mph - N/A   Overcast
7:07 AM 78.8 °F - 73.4 °F 83% 29.93 in 6.0 mi SE 16.1 mph 23.0 mph N/A   Overcast
7:53 AM 78.1 °F - 73.9 °F 87% 29.94 in 6.0 mi SE 19.6 mph 26.5 mph N/A   Overcast
8:53 AM 81.0 °F 85.8 °F 73.0 °F 77% 29.96 in 8.0 mi SE 21.9 mph 29.9 mph N/A   Mostly Cloudy
9:26 AM 80.6 °F 85.4 °F 73.4 °F 79% 29.96 in 8.0 mi SE 25.3 mph 31.1 mph N/A   Overcast
10:25 AM 82.4 °F 87.2 °F 71.6 °F 70% 29.97 in 9.0 mi SE 23.0 mph 28.8 mph N/A   Mostly Cloudy
10:32 AM 84.2 °F 89.6 °F 71.6 °F 66% 29.97 in 9.0 mi SE 20.7 mph 27.6 mph N/A   Mostly Cloudy
10:53 AM 84.0 °F 89.6 °F 72.0 °F 67% 29.96 in 8.0 mi SE 24.2 mph 29.9 mph N/A   Mostly Cloudy
11:37 AM 84.2 °F 89.6 °F 71.6 °F 66% 29.96 in 8.0 mi SE 25.3 mph 29.9 mph N/A   Mostly Cloudy
11:53 AM 86.0 °F 93.0 °F 73.0 °F 65% 29.96 in 7.0 mi SSE 20.7 mph 27.6 mph N/A   Scattered Clouds
12:53 PM 84.9 °F 90.7 °F 72.0 °F 65% 29.96 in 8.0 mi SE 21.9 mph 29.9 mph N/A   Mostly Cloudy
1:53 PM 87.1 °F 92.0 °F 70.0 °F 57% 29.95 in 9.0 mi SSE 18.4 mph 28.8 mph N/A   Partly Cloudy
2:53 PM 87.1 °F 92.8 °F 71.1 °F 59% 29.94 in 9.0 mi SE 21.9 mph 29.9 mph N/A   Scattered Clouds
3:53 PM 84.9 °F 92.1 °F 73.9 °F 69% 29.91 in 8.0 mi ESE 20.7 mph - N/A   Mostly Cloudy
4:53 PM 84.0 °F 91.2 °F 73.9 °F 72% 29.90 in 8.0 mi ESE 19.6 mph 25.3 mph N/A   Overcast
5:53 PM 82.0 °F 87.4 °F 73.0 °F 74% 29.88 in 8.0 mi ESE 18.4 mph - N/A   Mostly Cloudy
6:53 PM 81.0 °F 86.2 °F 73.9 °F 79% 29.89 in 8.0 mi SE 18.4 mph - N/A   Overcast
7:34 PM 80.6 °F 85.4 °F 73.4 °F 79% 29.89 in 8.0 mi SE 17.3 mph - N/A   Overcast
7:53 PM 79.0 °F - 73.9 °F 84% 29.90 in 7.0 mi SE 16.1 mph - N/A   Overcast
8:41 PM 78.8 °F - 73.4 °F 83% 29.92 in 8.0 mi ESE 16.1 mph - N/A   Overcast
8:53 PM 79.0 °F - 73.9 °F 84% 29.91 in 8.0 mi SE 18.4 mph - N/A   Overcast
9:53 PM 79.0 °F - 75.0 °F 88% 29.94 in 8.0 mi SE 17.3 mph - N/A   Overcast
10:53 PM 80.1 °F 85.1 °F 75.0 °F 85% 29.95 in 7.0 mi SE 16.1 mph - N/A   Overcast
11:53 PM 79.0 °F - 75.0 °F 88% 29.95 in 6.0 mi SE 15.0 mph - N/A   Overcast